JUPITER 3 (ECHOSTAR 24)

Last updated on Sun Nov 16 2025 00:03:45 GMT+0000 (Coordinated Universal Time)

1 57479U 23108A 25319.11311794 -.00000145 00000+0 00000+0 0 9992 2 57479 0.0132 307.4131 0001097 289.3946 123.2046 1.00271456 8504
UTC large
Height (km)
Speed (km/s)
/
Latitude / Longitude
Inclination (degrees)
Orbital Period (minutes)
Azimuth
Elevation
Range (km)
Doppler Factor

Next 0 passes for location: London (51.5072 / 0.1276)

Sorry there are no passes over London.